Time,TemperatureF,DewpointF,PressureIn,WindDirection,WindDirectionDegrees,WindSpeedMPH,WindSpeedGustMPH,Humidity,HourlyPrecipIn,Conditions,Clouds,dailyrainin,SoftwareType,DateUTC
2013-07-17 02:32:00,43.0,14.0,29.96,North,-999,0.0,0.0,30,0.00,,,-99.99,,2013-07-17 09:32:00,
2013-07-17 02:43:00,43.0,14.0,29.96,North,-999,0.0,0.0,30,0.00,,,-99.99,,2013-07-17 09:43:00,
2013-07-17 03:32:00,42.0,11.0,29.99,North,0,0.0,3.0,28,0.00,,,-99.99,,2013-07-17 10:32:00,
2013-07-17 03:43:00,42.0,11.0,29.99,North,0,0.0,3.0,28,0.00,,,-99.99,,2013-07-17 10:43:00,
2013-07-17 04:32:00,39.0,10.0,30.00,SSW,200,1.0,3.0,30,0.00,,,-99.99,,2013-07-17 11:32:00,
2013-07-17 04:42:00,39.0,10.0,30.00,SSW,200,1.0,3.0,30,0.00,,,-99.99,,2013-07-17 11:42:00,
2013-07-17 05:32:00,38.0,11.0,30.02,South,190,1.0,2.0,32,0.00,,,-99.99,,2013-07-17 12:32:00,
2013-07-17 05:42:00,38.0,11.0,30.02,South,190,1.0,2.0,32,0.00,,,-99.99,,2013-07-17 12:42:00,
2013-07-17 06:32:00,38.0,10.0,30.03,North,-999,0.0,0.0,31,0.00,,,-99.99,,2013-07-17 13:32:00,
2013-07-17 06:43:00,38.0,10.0,30.03,North,-999,0.0,0.0,31,0.00,,,-99.99,,2013-07-17 13:43:00,
2013-07-17 07:43:00,40.0,11.0,30.11,North,0,0.0,1.0,30,0.00,,,-99.99,,2013-07-17 14:43:00,
2013-07-17 08:32:00,51.0,17.0,30.05,North,0,0.0,1.0,26,0.00,,,-99.99,,2013-07-17 15:32:00,
2013-07-17 08:42:00,51.0,17.0,30.05,North,0,0.0,1.0,26,0.00,,,-99.99,,2013-07-17 15:42:00,
2013-07-17 09:33:00,65.0,19.0,30.02,South,190,1.0,2.0,17,0.00,,,-99.99,,2013-07-17 16:33:00,
2013-07-17 09:42:00,65.0,19.0,30.02,South,190,1.0,2.0,17,0.00,,,-99.99,,2013-07-17 16:42:00,
2013-07-17 10:32:00,73.0,2.0,30.01,ENE,60,2.0,3.0,6,0.00,,,-99.99,,2013-07-17 17:32:00,
2013-07-17 10:43:00,73.0,2.0,30.01,ENE,60,2.0,3.0,6,0.00,,,-99.99,,2013-07-17 17:43:00,
2013-07-17 11:32:00,73.0,8.0,30.04,NNE,20,7.0,12.0,8,0.00,,,-99.99,,2013-07-17 18:32:00,
2013-07-17 11:43:00,73.0,8.0,30.04,NNE,20,7.0,12.0,8,0.00,,,-99.99,,2013-07-17 18:43:00,
2013-07-17 12:32:00,75.0,10.0,30.05,NE,40,7.0,12.0,8,0.00,,,-99.99,,2013-07-17 19:32:00,
2013-07-17 12:43:00,75.0,10.0,30.05,NE,40,7.0,12.0,8,0.00,,,-99.99,,2013-07-17 19:43:00,
2013-07-17 13:33:00,76.0,10.0,30.07,North,10,4.0,12.0,8,0.00,,,-99.99,,2013-07-17 20:33:00,
2013-07-17 13:43:00,76.0,10.0,30.07,North,10,4.0,12.0,8,0.00,,,-99.99,,2013-07-17 20:43:00,
2013-07-17 18:32:00,78.0,9.0,30.06,NNE,20,3.0,7.0,7,0.00,,,-99.99,,2013-07-18 01:32:00,
2013-07-17 18:42:00,78.0,9.0,30.06,NNE,20,3.0,7.0,7,0.00,,,-99.99,,2013-07-18 01:42:00,
2013-07-17 20:32:00,73.0,21.0,29.93,North,0,0.0,3.0,14,0.00,,,-99.99,,2013-07-18 03:32:00,
2013-07-17 20:43:00,73.0,21.0,29.93,North,0,0.0,3.0,14,0.00,,,-99.99,,2013-07-18 03:43:00,
2013-07-17 21:32:00,66.0,21.0,29.92,North,-999,0.0,0.0,18,0.00,,,-99.99,,2013-07-18 04:32:00,
2013-07-17 21:43:00,66.0,21.0,29.92,North,-999,0.0,0.0,18,0.00,,,-99.99,,2013-07-18 04:43:00,
2013-07-17 22:32:00,58.0,20.0,29.98,North,-999,0.0,0.0,23,0.00,,,-99.99,,2013-07-18 05:32:00,
2013-07-17 22:42:00,58.0,20.0,29.98,North,-999,0.0,0.0,23,0.00,,,-99.99,,2013-07-18 05:42:00,
2013-07-17 23:43:00,54.0,14.0,30.00,North,-999,0.0,0.0,20,0.00,,,-99.99,,2013-07-18 06:43:00,